Location: *
(35.2348°S, 91.3916°E)
Time: 15:49:29
(UTC+00:00)

Cosmos 2322 Rocket - Pass Details

Date: 23 October 2019
Orbit: 834 x 850 km, 71.0° (Epoch: 13 November)

Event Time Altitude Azimuth Distance (km) Brightness Sun altitude
Rises 15:29:00 0° 189° (S) 3,441 6.2 -34.1°
Reaches altitude 10° 15:31:56 10° 176° (S) 2,497 5.1 -34.5°
Enters shadow 15:34:26 20° 153° (SSE) 1,869 4.2 -34.8°
